This is the latest recevied weather packets stored in our database for station/object KF0WJA. If no packets are shown the sender has not sent any weather packets the latest 10 day(s).
| Time | Temp. | Humidity | Pressure | Rain* | Wind** | Luminosity | Snow |
|---|---|---|---|---|---|---|---|
| 1787865207 | 33.89° C | 41% | 1020.1 hPa | 0 mm | - | 550 W/m² | - |
| 1787864904 | 33.89° C | 43% | 1020.3 hPa | 0 mm | - | 551 W/m² | - |
| 1787864604 | 33.89° C | 42% | 1020.2 hPa | 0 mm | - | 551 W/m² | - |
| 1787864299 | 33.89° C | 42% | 1020.6 hPa | 0 mm | - | 573 W/m² | - |
| 1787863999 | 33.89° C | 43% | 1020.7 hPa | 0 mm | - | 605 W/m² | - |
| 1787863698 | 33.89° C | 44% | 1020.7 hPa | 0 mm | - | 615 W/m² | - |
| 1787863397 | 33.89° C | 43% | 1020.6 hPa | 0 mm | - | 617 W/m² | - |
| 1787863093 | 33.89° C | 43% | 1020.6 hPa | 0 mm | - | 640 W/m² | - |
| 1787862788 | 33.89° C | 43% | 1020.6 hPa | 0 mm | - | 646 W/m² | - |
| 1787862487 | 33.33° C | 44% | 1020.6 hPa | 0 mm | - | 648 W/m² | - |
| 1787862182 | 33.89° C | 42% | 1020.6 hPa | 0 mm | - | 650 W/m² | - |
| 1787861878 | 33.33° C | 44% | 1020.9 hPa | 0 mm | - | 651 W/m² | - |
| 1787861577 | 32.78° C | 44% | 1020.8 hPa | 0 mm | - | 648 W/m² | - |
| 1787861271 | 33.33° C | 44% | 1021.1 hPa | 0 mm | - | 239 W/m² | - |
| 1787860970 | 32.78° C | 45% | 1021 hPa | 0 mm | - | 672 W/m² | - |
| 1787860670 | 33.33° C | 46% | 1021 hPa | 0 mm | - | 165 W/m² | - |
| 1787860366 | 33.89° C | 45% | 1021.1 hPa | 0 mm | - | 689 W/m² | - |
| 1787860066 | 33.33° C | 46% | 1021 hPa | 0 mm | - | 727 W/m² | - |
| 1787859761 | 33.33° C | 45% | 1021 hPa | 0 mm | - | 694 W/m² | - |
| 1787859461 | 32.78° C | 48% | 1021.1 hPa | 0 mm | - | 663 W/m² | - |
| 1787859161 | 33.33° C | 46% | 1021.4 hPa | 0 mm | - | 672 W/m² | - |
| 1787858858 | 32.78° C | 46% | 1021.3 hPa | 0 mm | - | 685 W/m² | - |
| 1787858553 | 32.78° C | 46% | 1021.5 hPa | 0 mm | - | 697 W/m² | - |
| 1787858252 | 32.78° C | 46% | 1021.6 hPa | 0 mm | - | 716 W/m² | - |
| 1787857953 | 32.78° C | 46% | 1021.6 hPa | 0 mm | - | 691 W/m² | - |
* Rain latest hour (hover to see other rain measurements)
** Current wind speed in m/s (hover to see current wind gust speed)